Location: Burgberg
(50.1428°N, 11.0671°E)
Time: 21:13:00
(UTC+00:00)

FENGYUN 3A - Pass Details

Date: 26 January 2020
Orbit: 824 x 836 km, 98.4° (Epoch: 16 February)

Event Time Altitude Azimuth Distance (km) Brightness Sun altitude
Rises 04:40:06 0° 15° (NNE) 3,381 7.0 -22.0°
Reaches altitude 10° 04:42:28 10° 16° (NNE) 2,445 6.2 -21.6°
Maximum altitude 04:47:54 82° 104° (ESE) 846 3.7 -20.7°
Drops below altitude 10° 04:53:19 10° 193° (SSW) 2,435 6.0 -19.9°
Sets 04:55:40 0° 194° (SSW) 3,366 6.8 -19.5°
